EW7146 Weather Reports


time (UTC)temp
F
wind
direction
speed
knots
gust
knots
rain 1hr
in
rain 24hr
in
rain mn
in
humidity
%
barometer
mb
20260901103443 49 190 0.0 0.0 0.00 0.00 0.00 80 1022.9
20260901102943 50 190 0.0 0.0 0.00 0.00 0.00 79 1022.7
20260901102712 50 190 0.0 0.0 0.00 0.00 0.00 78 1022.7
20260901101944 51 190 0.0 0.0 0.00 0.00 0.00 77 1022.7
20260901101443 51 190 0.0 0.0 0.00 0.00 0.00 75 1022.7
20260901100944 51 190 0.0 0.0 0.00 0.00 0.00 76 1022.7
20260901100442 51 231 0.0 0.0 0.00 0.00 0.00 77 1022.6
20260901095945 51 231 0.0 0.0 0.00 0.00 0.00 75 1022.7
20260901095709 51 231 0.0 0.0 0.00 0.00 0.00 76 1022.7
20260901094942 51 231 0.0 0.0 0.00 0.00 0.00 78 1022.7
20260901094443 51 231 0.0 0.0 0.00 0.00 0.00 76 1022.5
20260901093942 51 231 0.0 0.0 0.00 0.00 0.00 74 1022.6
20260901093443 51 230 0.0 0.0 0.00 0.00 0.00 77 1022.6
20260901092942 51 230 0.0 0.0 0.00 0.00 0.00 76 1022.6
20260901092443 51 230 0.0 0.0 0.00 0.00 0.00 75 1022.6
20260901091941 51 231 0.0 0.0 0.00 0.00 0.00 77 1022.7
20260901091441 51 231 0.0 0.0 0.00 0.00 0.00 78 1022.6
20260901090942 52 223 0.0 0.0 0.00 0.00 0.00 75 1022.6
20260901090440 52 223 0.0 0.0 0.00 0.00 0.00 74 1022.6
20260901085942 52 223 0.0 0.0 0.00 0.00 0.00 74 1022.7
20260901085440 52 228 0.0 0.0 0.00 0.00 0.00 76 1022.6
20260901084943 52 228 0.0 0.0 0.00 0.00 0.00 76 1022.6
20260901084706 53 228 0.0 0.0 0.00 0.00 0.00 74 1022.5
20260901083942 53 228 0.0 0.0 0.00 0.00 0.00 73 1022.7
20260901083440 53 216 0.0 0.0 0.00 0.00 0.00 76 1022.7
20260901082941 54 216 0.0 0.0 0.00 0.00 0.00 74 1022.6
20260901082932 55 216 0.0 0.0 0.00 0.00 0.00 67 1022.7
20260901081940 55 216 0.0 0.0 0.00 0.00 0.00 66 1022.7
20260901081441 55 216 0.0 0.0 0.00 0.00 0.00 67 1022.7
20260901080940 56 216 0.0 0.0 0.00 0.00 0.00 66 1022.7
20260901080932 56 216 0.0 0.0 0.00 0.00 0.00 65 1022.7
20260901080200 56 216 0.0 0.0 0.00 0.00 0.00 65 1022.7
20260901075442 56 216 0.0 0.0 0.00 0.00 0.00 65 1022.9
20260901074939 56 216 0.0 0.0 0.00 0.00 0.00 66 1022.9
20260901074439 56 216 0.0 0.0 0.00 0.00 0.00 66 1022.7
20260901073940 56 231 0.0 0.0 0.00 0.00 0.00 65 1022.7
20260901073439 56 245 0.0 0.0 0.00 0.00 0.00 64 1022.6
20260901072941 56 245 0.0 0.0 0.00 0.00 0.00 65 1022.7
20260901072704 56 245 0.0 0.0 0.00 0.00 0.00 64 1022.7
20260901071938 56 245 0.0 0.0 0.00 0.00 0.00 65 1022.7
20260901071925 55 223 0.0 0.0 0.00 0.00 0.00 66 1022.7
20260901070940 55 223 0.0 0.0 0.00 0.00 0.00 68 1022.7
20260901070439 55 237 0.0 0.0 0.00 0.00 0.00 71 1022.6
20260901065938 55 237 0.0 0.0 0.00 0.00 0.00 71 1022.7
20260901065439 56 237 0.0 0.0 0.00 0.00 0.00 67 1022.7
20260901064938 56 237 0.0 0.0 0.00 0.00 0.00 69 1022.7
20260901064440 56 251 0.0 0.0 0.00 0.00 0.00 69 1022.9
20260901063937 57 251 0.0 0.0 0.00 0.00 0.00 66 1022.7
20260901063439 58 251 0.0 0.0 0.00 0.00 0.00 63 1022.9
20260901062937 58 248 0.0 0.0 0.00 0.00 0.00 62 1022.9
20260901062439 58 248 0.0 0.0 0.00 0.00 0.00 64 1023.0
20260901061938 58 248 0.0 0.0 0.00 0.00 0.00 63 1022.9
20260901061437 58 248 0.0 0.0 0.00 0.00 0.00 62 1023.0
20260901061208 58 248 0.0 0.0 0.00 0.00 0.00 61 1022.9
20260901060437 58 248 0.0 0.0 0.00 0.00 0.00 61 1023.0
20260901055943 57 237 0.0 0.0 0.00 0.00 0.00 62 1023.0
20260901055437 56 252 0.0 0.0 0.00 0.00 0.00 64 1023.0
20260901054938 56 252 0.0 0.0 0.00 0.00 0.00 67 1023.0
20260901054653 56 252 0.0 0.0 0.00 0.00 0.00 72 1023.0
20260901053938 56 252 0.0 0.0 0.00 0.00 0.00 71 1023.0
20260901053437 56 252 0.0 0.0 0.00 0.00 0.00 69 1023.0
20260901052936 56 252 0.0 0.0 0.00 0.00 0.00 74 1023.0
20260901052445 56 252 0.0 0.0 0.00 0.00 0.00 74 1023.1
20260901051936 57 252 0.0 0.0 0.00 0.00 0.00 73 1023.0
20260901051438 57 252 0.0 0.0 0.00 0.00 0.00 70 1023.1
20260901050935 57 252 0.0 0.0 0.00 0.00 0.00 69 1023.1
20260901050701 57 252 0.0 0.0 0.00 0.00 0.00 72 1023.0
20260901045935 58 252 0.0 0.0 0.00 0.00 0.00 70 1023.1
20260901045435 58 252 0.0 0.0 0.00 0.00 0.00 66 1023.1
20260901045202 58 252 0.0 0.0 0.00 0.00 0.00 71 1023.1
20260901044435 58 252 0.0 0.0 0.00 0.00 0.00 72 1023.1
20260901044207 58 254 0.0 0.0 0.00 0.00 0.00 72 1023.1
20260901043701 59 252 0.0 0.0 0.00 0.00 0.00 70 1023.1
20260901043157 59 254 0.0 0.0 0.00 0.00 0.00 68 1023.1
20260901042435 60 203 0.0 0.0 0.00 0.00 0.00 66 1023.1
20260901041943 60 203 0.0 0.0 0.00 0.00 0.00 60 1023.0
20260901041434 60 199 0.0 1.7 0.00 0.00 0.00 63 1023.0
20260901040935 61 199 0.0 1.7 0.00 0.00 0.00 65 1023.1
20260901040436 62 290 0.0 2.6 0.00 0.00 0.00 63 1023.0
20260901035935 63 151 0.9 2.6 0.00 0.00 0.00 55 1022.9
20260901035435 64 251 0.0 2.6 0.00 0.00 0.00 55 1022.7
20260901034935 63 262 0.0 2.6 0.00 0.00 0.00 52 1022.7
20260901034436 63 247 0.0 0.9 0.00 0.00 0.00 55 1022.6
20260901033934 63 221 0.0 0.0 0.00 0.00 0.00 60 1022.6
20260901033435 64 221 0.0 0.0 0.00 0.00 0.00 55 1022.7
20260901032933 64 221 0.0 0.0 0.00 0.00 0.00 53 1022.5
20260901032916 65 221 0.0 2.6 0.00 0.00 0.00 55 1022.5
20260901031934 66 221 0.0 2.6 0.00 0.00 0.00 49 1022.4
20260901031434 66 234 0.0 1.7 0.00 0.00 0.00 49 1022.4
20260901030934 66 223 0.0 0.9 0.00 0.00 0.00 49 1022.4
20260901030434 67 195 0.0 0.0 0.00 0.00 0.00 54 1022.4
20260901025935 68 195 0.0 0.9 0.00 0.00 0.00 53 1022.3
20260901025651 69 195 0.0 4.3 0.00 0.00 0.00 45 1022.3
20260901024933 69 213 1.7 4.3 0.00 0.00 0.00 45 1022.3
20260901024432 70 186 1.7 3.5 0.00 0.00 0.00 44 1022.3
20260901023933 70 134 0.0 0.9 0.00 0.00 0.00 44 1022.3
20260901023433 70 134 0.0 0.9 0.00 0.00 0.00 43 1022.3
20260901022932 70 193 0.0 0.9 0.00 0.00 0.00 45 1022.4
20260901022433 71 138 0.0 0.0 0.00 0.00 0.00 46 1022.4
20260901021932 72 138 0.0 0.0 0.00 0.00 0.00 47 1022.4
20260901021432 73 138 0.0 0.0 0.00 0.00 0.00 46 1022.4
20260901020932 74 138 0.0 0.0 0.00 0.00 0.00 43 1022.3
20260901020432 75 138 0.0 0.0 0.00 0.00 0.00 39 1022.3
20260901015933 75 138 0.0 0.9 0.00 0.00 0.00 34 1022.3
20260901015428 76 138 0.0 1.7 0.00 0.00 0.00 34 1022.4
20260901014932 77 135 0.0 2.6 0.00 0.00 0.00 34 1022.4
20260901014432 77 107 0.9 4.3 0.00 0.00 0.00 33 1022.3
20260901013932 78 120 0.9 4.3 0.00 0.00 0.00 32 1022.4
20260901013432 78 118 1.7 4.3 0.00 0.00 0.00 32 1022.4
20260901012932 78 130 1.7 5.2 0.00 0.00 0.00 32 1022.4
20260901012431 78 113 3.5 5.2 0.00 0.00 0.00 32 1022.4
20260901011931 78 116 2.6 6.1 0.00 0.00 0.00 31 1022.4
20260901011703 78 154 2.6 6.1 0.00 0.00 0.00 31 1022.5
20260901010931 79 144 3.5 5.2 0.00 0.00 0.00 31 1022.5
20260901010431 79 135 3.5 5.2 0.00 0.00 0.00 31 1022.5
20260901005931 79 131 2.6 5.2 0.00 0.00 0.00 31 1022.6
20260901005653 79 124 2.6 5.2 0.00 0.00 0.00 31 1022.6
20260901004930 79 100 2.6 5.2 0.00 0.00 0.00 31 1022.7
20260901004431 79 116 2.6 8.7 0.00 0.00 0.00 31 1022.7
20260901003930 79 71 3.5 8.7 0.00 0.00 0.00 31 1022.9
20260901003653 79 106 3.5 7.8 0.00 0.00 0.00 31 1022.7
20260901002927 79 124 4.3 7.8 0.00 0.00 0.00 31 1022.7
20260901002426 80 65 1.7 8.7 0.00 0.00 0.00 31 1022.9
20260901001930 80 114 2.6 8.7 0.00 0.00 0.00 31 1022.9
20260901001429 80 58 1.7 6.1 0.00 0.00 0.00 31 1023.0
20260901000931 80 116 2.6 9.6 0.00 0.00 0.00 31 1023.1
20260901000652 80 80 3.5 9.6 0.00 0.00 0.00 31 1023.1
20260831235934 80 90 3.5 8.7 0.00 0.00 0.00 30 1023.3
20260831235428 80 65 2.6 8.7 0.00 0.00 0.00 31 1023.3
20260831234924 79 137 4.3 8.7 0.00 0.00 0.00 31 1023.3
20260831234424 79 80 1.7 8.7 0.00 0.00 0.00 32 1023.3
20260831233926 79 94 2.6 7.8 0.00 0.00 0.00 32 1023.4
20260831233430 79 62 4.3 7.8 0.00 0.00 0.00 32 1023.5
20260831232928 79 86 3.5 8.7 0.00 0.00 0.00 32 1023.5
20260831232429 79 92 3.5 8.7 0.00 0.00 0.00 32 1023.6
20260831231928 80 66 2.6 8.7 0.00 0.00 0.00 32 1023.5
20260831231428 80 73 2.6 8.7 0.00 0.00 0.00 32 1023.6
20260831231154 80 63 2.6 7.8 0.00 0.00 0.00 32 1023.6
20260831230423 80 85 1.7 8.7 0.00 0.00 0.00 32 1023.7
20260831225925 79 68 1.7 8.7 0.00 0.00 0.00 32 1023.7
20260831225428 79 99 1.7 8.7 0.00 0.00 0.00 33 1023.9
20260831224929 79 86 2.6 10.4 0.00 0.00 0.00 32 1024.0
20260831224427 79 114 5.2 10.4 0.00 0.00 0.00 32 1024.0
20260831223928 79 86 2.6 9.6 0.00 0.00 0.00 33 1024.0
20260831223430 79 100 3.5 9.6 0.00 0.00 0.00 33 1024.1
20260831222932 79 107 0.9 11.3 0.00 0.00 0.00 32 1024.1
20260831222424 79 92 3.5 11.3 0.00 0.00 0.00 32 1024.2
20260831221922 78 138 2.6 7.8 0.00 0.00 0.00 33 1024.2
20260831221642 79 85 2.6 11.3 0.00 0.00 0.00 33 1024.5
20260831221525 78 71 2.6 7.8 0.00 0.00 0.00 32 1024.4
20260831220650 78 127 2.6 11.3 0.00 0.00 0.00 34 1024.6
20260831215926 78 133 1.7 5.2 0.00 0.00 0.00 33 1024.7
20260831215426 78 123 2.6 11.3 0.00 0.00 0.00 33 1024.7
20260831214925 78 79 4.3 11.3 0.00 0.00 0.00 34 1024.8
20260831214427 78 8 3.5 6.1 0.00 0.00 0.00 33 1024.9
20260831213925 77 55 3.5 7.8 0.00 0.00 0.00 35 1024.9
20260831213426 77 140 3.5 7.8 0.00 0.00 0.00 35 1025.0
20260831212923 77 54 1.7 9.6 0.00 0.00 0.00 35 1025.1
20260831212650 77 124 4.3 9.6 0.00 0.00 0.00 35 1025.1
20260831211927 76 130 5.2 8.7 0.00 0.00 0.00 35 1025.1
20260831211425 77 78 3.5 8.7 0.00 0.00 0.00 35 1025.2
20260831210926 77 89 2.6 5.2 0.00 0.00 0.00 35 1025.2
20260831210425 76 80 1.7 7.8 0.00 0.00 0.00 35 1025.3
20260831205931 76 78 3.5 7.8 0.00 0.00 0.00 36 1025.4
20260831205422 76 120 2.6 9.6 0.00 0.00 0.00 36 1025.5
20260831204921 76 52 3.5 9.6 0.00 0.00 0.00 36 1025.6
20260831204644 76 141 3.5 7.8 0.00 0.00 0.00 36 1025.6
20260831203924 76 78 1.7 7.8 0.00 0.00 0.00 36 1025.7
20260831203426 76 131 1.7 7.8 0.00 0.00 0.00 37 1026.0
20260831202925 75 55 3.5 6.1 0.00 0.00 0.00 38 1026.0
20260831202429 74 55 3.5 7.8 0.00 0.00 0.00 38 1026.0
20260831202150 74 127 2.6 7.8 0.00 0.00 0.00 39 1026.1
20260831201424 74 76 1.7 8.7 0.00 0.00 0.00 38 1026.2
20260831201150 74 76 3.5 9.6 0.00 0.00 0.00 38 1026.3
20260831200424 74 72 3.5 9.6 0.00 0.00 0.00 38 1026.3
20260831200144 74 82 2.6 10.4 0.00 0.00 0.00 39 1026.5
20260831195424 73 79 2.6 10.4 0.00 0.00 0.00 39 1026.6
20260831194925 74 142 3.5 9.6 0.00 0.00 0.00 40 1026.6
20260831194423 73 76 3.5 9.6 0.00 0.00 0.00 39 1026.7
20260831193923 73 66 4.3 11.3 0.00 0.00 0.00 39 1026.7
20260831193423 73 76 5.2 11.3 0.00 0.00 0.00 40 1026.8
20260831192923 72 52 3.5 8.7 0.00 0.00 0.00 41 1026.9
20260831192421 72 85 3.5 8.7 0.00 0.00 0.00 40 1027.1
20260831191920 72 69 2.6 11.3 0.00 0.00 0.00 41 1027.1
20260831191421 72 149 4.3 11.3 0.00 0.00 0.00 40 1027.1
20260831190923 72 66 4.3 10.4 0.00 0.00 0.00 41 1027.1
20260831190423 72 127 5.2 8.7 0.00 0.00 0.00 41 1027.2
20260831185928 72 48 2.6 7.8 0.00 0.00 0.00 43 1027.3
20260831185422 71 168 2.6 5.2 0.00 0.00 0.00 42 1027.5
20260831184929 70 207 3.5 7.8 0.00 0.00 0.00 44 1027.6
20260831184922 71 118 1.7 6.1 0.00 0.00 0.00 43 1027.5
20260831184422 70 42 2.6 7.8 0.00 0.00 0.00 43 1027.6
20260831183421 70 96 2.6 5.2 0.00 0.00 0.00 44 1027.8
20260831182920 69 32 1.7 4.3 0.00 0.00 0.00 45 1027.9
20260831182421 69 49 1.7 4.3 0.00 0.00 0.00 45 1027.9
20260831181922 69 133 2.6 4.3 0.00 0.00 0.00 46 1028.0
20260831181421 69 47 1.7 3.5 0.00 0.00 0.00 46 1028.0
20260831181145 68 76 0.9 3.5 0.00 0.00 0.00 48 1027.9
20260831180643 67 103 1.7 3.5 0.00 0.00 0.00 47 1028.0
20260831175921 67 116 1.7 3.5 0.00 0.00 0.00 48 1028.1
20260831175421 67 93 0.0 3.5 0.00 0.00 0.00 48 1028.1
20260831174920 66 73 0.9 3.5 0.00 0.00 0.00 48 1028.1
20260831174422 66 96 0.9 2.6 0.00 0.00 0.00 48 1028.3
20260831173921 66 56 0.9 2.6 0.00 0.00 0.00 49 1028.3
20260831173421 65 133 0.9 3.5 0.00 0.00 0.00 51 1028.3
20260831172920 65 145 0.9 3.5 0.00 0.00 0.00 51 1028.3
20260831172421 65 107 0.9 2.6 0.00 0.00 0.00 50 1028.3
20260831171921 65 38 0.0 2.6 0.00 0.00 0.00 52 1028.4
20260831171419 65 49 0.0 1.7 0.00 0.00 0.00 52 1028.5
20260831170921 64 173 0.0 1.7 0.00 0.00 0.00 52 1028.5
20260831170645 63 272 0.0 0.0 0.00 0.00 0.00 54 1028.5
20260831165920 62 262 0.0 0.0 0.00 0.00 0.00 55 1028.5
20260831165419 62 39 0.0 0.0 0.00 0.00 0.00 55 1028.6
20260831164919 62 63 0.0 0.0 0.00 0.00 0.00 55 1028.7
20260831164419 62 243 0.0 0.9 0.00 0.00 0.00 59 1028.7
20260831164139 61 241 0.0 0.9 0.00 0.00 0.00 61 1028.8
20260831162919 59 353 0.0 0.0 0.00 0.00 0.00 62 1028.9
20260831162420 59 72 0.0 1.7 0.00 0.00 0.00 62 1029.1
20260831161919 58 354 0.9 1.7 0.00 0.00 0.00 63 1029.1
20260831161420 58 18 0.0 0.9 0.00 0.00 0.00 65 1029.2
20260831160918 57 348 0.0 1.7 0.00 0.00 0.00 65 1029.2
20260831160423 57 4 0.0 1.7 0.00 0.00 0.00 68 1029.3
20260831155918 56 24 0.0 0.9 0.00 0.00 0.00 68 1029.3
20260831155417 56 240 0.0 0.9 0.00 0.00 0.00 69 1029.3
20260831154919 55 1 0.0 0.0 0.00 0.00 0.00 73 1029.3
20260831154418 54 1 0.0 0.0 0.00 0.00 0.00 72 1029.4
20260831153919 54 329 0.0 0.0 0.00 0.00 0.00 73 1029.4
20260831153417 54 324 0.0 0.0 0.00 0.00 0.00 74 1029.4
20260831153145 53 324 0.0 0.0 0.00 0.00 0.00 75 1029.6
20260831152418 53 305 0.0 0.0 0.00 0.00 0.00 76 1029.5
20260831152146 52 283 0.0 0.0 0.00 0.00 0.00 77 1029.5
20260831151418 51 261 0.0 0.0 0.00 0.00 0.00 81 1029.5
20260831150917 51 261 0.0 0.0 0.00 0.00 0.00 82 1029.5
20260831150418 51 259 0.0 0.0 0.00 0.00 0.00 82 1029.6
20260831145916 50 261 0.0 0.0 0.00 0.00 0.00 83 1029.6
20260831145418 49 261 0.0 0.0 0.00 0.00 0.00 86 1029.6
20260831144917 48 261 0.0 0.0 0.00 0.00 0.00 88 1029.5
20260831144416 47 261 0.0 0.0 0.00 0.00 0.00 89 1029.5
20260831143916 46 261 0.0 0.0 0.00 0.00 0.00 90 1029.4
20260831143636 46 259 0.0 0.0 0.00 0.00 0.00 90 1029.4
20260831143139 45 259 0.0 0.0 0.00 0.00 0.00 90 1029.4
20260831142645 45 259 0.0 0.0 0.00 0.00 0.00 90 1029.4
20260831141917 44 261 0.0 0.0 0.00 0.00 0.00 90 1029.4
20260831141416 44 261 0.0 0.0 0.00 0.00 0.00 91 1029.4
20260831141139 44 261 0.0 0.0 0.00 0.00 0.00 91 1029.3
20260831140415 44 261 0.0 0.0 0.00 0.00 0.00 91 1029.3
20260831135915 43 276 0.0 0.0 0.00 0.00 0.00 91 1029.3
20260831135635 43 276 0.0 0.0 0.00 0.00 0.00 91 1029.3
20260831134915 43 234 0.0 0.0 0.00 0.00 0.00 91 1029.2
20260831134416 43 233 0.0 0.0 0.00 0.00 0.00 91 1029.2
20260831133915 43 234 0.0 0.0 0.00 0.00 0.00 91 1029.1
20260831133417 43 234 0.0 0.0 0.00 0.00 0.00 90 1028.9
20260831132914 43 234 0.0 0.0 0.00 0.00 0.00 90 1028.9
20260831132416 43 234 0.0 0.0 0.00 0.00 0.00 90 1028.9
20260831131914 43 234 0.0 0.0 0.00 0.00 0.00 89 1028.9
20260831131653 43 233 0.0 0.0 0.00 0.00 0.00 88 1028.8
20260831131136 44 234 0.0 0.0 0.00 0.00 0.00 88 1028.9
20260831130414 44 233 0.0 0.0 0.00 0.00 0.00 89 1028.9
20260831125914 44 234 0.0 0.0 0.00 0.00 0.00 89 1028.9
20260831125415 44 217 0.0 0.0 0.00 0.00 0.00 88 1028.9
20260831125406 44 217 0.0 0.0 0.00 0.00 0.00 87 1028.9
20260831124413 44 217 0.0 0.0 0.00 0.00 0.00 88 1028.8
20260831123915 44 217 0.0 0.0 0.00 0.00 0.00 89 1028.8
20260831123413 44 217 0.0 0.0 0.00 0.00 0.00 89 1028.8
20260831122913 44 224 0.0 0.0 0.00 0.00 0.00 88 1028.7
20260831122644 44 224 0.0 0.0 0.00 0.00 0.00 87 1028.8
20260831121913 45 224 0.0 0.0 0.00 0.00 0.00 87 1028.8
20260831121630 45 224 0.0 0.0 0.00 0.00 0.00 87 1028.8
20260831120913 45 224 0.0 0.0 0.00 0.00 0.00 86 1028.8
20260831120414 45 224 0.0 0.0 0.00 0.00 0.00 86 1028.8
20260831120132 45 224 0.0 0.0 0.00 0.00 0.00 86 1028.8
20260831115415 45 224 0.0 0.0 0.00 0.00 0.00 86 1028.8
20260831114913 46 224 0.0 0.0 0.00 0.00 0.00 86 1028.7
20260831114413 46 224 0.0 0.0 0.00 0.00 0.00 85 1028.8
20260831113912 46 224 0.0 0.0 0.00 0.00 0.00 85 1028.8
20260831113412 46 224 0.0 0.0 0.00 0.00 0.00 84 1028.7
20260831112913 46 224 0.0 0.0 0.00 0.00 0.00 84 1028.9
20260831112412 47 224 0.0 0.0 0.00 0.00 0.00 82 1028.9
20260831112402 47 224 0.0 0.0 0.00 0.00 0.00 81 1029.1
20260831111413 48 224 0.0 0.0 0.00 0.00 0.00 82 1029.1
20260831110913 47 224 0.0 0.0 0.00 0.00 0.00 82 1028.9
20260831110633 47 227 0.0 0.0 0.00 0.00 0.00 82 1029.1
20260831105911 47 216 0.0 0.0 0.00 0.00 0.00 81 1029.1
20260831105412 47 209 0.0 0.0 0.00 0.00 0.00 81 1029.1
20260831104912 48 209 0.0 0.0 0.00 0.00 0.00 81 1029.1
20260831104635 48 209 0.0 0.0 0.00 0.00 0.00 81 1028.9